Temp
-8 -8 -8 -8 -8 -8 -8 -8 -8 -8 -8 -8 -9 -9 -9 -9 -9 -9 -9 -9 -9 -9 -9 -9 -9 -9 -9 -9 -10 -10 -9 -9
-8 -8 -8 -8 -8 -8 -8 -8 -8 -8 -8 -8 -8 -9 -9 -9 -9 -9 -9 -9 -9 -9 -9 -9 -9 -9 -10 -10 -10 -10 -10 -10
-9 -8 -8 -8 -8 -8 -8 -9 -9 -9 -8 -8 -9 -9 -9 -9 -9 -9 -9 -9 -9 -9 -9 -9 -9 -9 -9 -10 -10 -10 -10 -10
-9 -9 -9 -8 -9 -9 -9 -9 -9 -8 -8 -8 -9 -8 -9 -9 -9 -9 -9 -9 -9 -9 -9 -9 -9 -9 -9 -9 -9 -9 -9 -9
-9 -9 -9 -9 -9 -9 -9 -9 -9 -9 -9 -9 -9 -9 -9 -9 -9 -9 -9 -10 -10 -10 -10 -10 -10 -10 -10 -10 -10 -10 -10 -10
-9 -9 -8 -9 -9 -8 -9 -9 -9 -9 -9 -9 -9 -9 -9 -9 -9 -9 -9 -9 -9 -9 -10 -10 -10 -10 -10 -10 -10 -10 -10 -10
-9 -8 -8 -8 -8 -8 -8 -9 -9 -9 -9 -9 -9 -9 -9 -9 -9 -9 -9 -9 -9 -9 -9 -9 -9 -9 -10 -10 -10 -10 -10 -10
-9 -9 -8 -8 -8 -9 -9 -8 -9 -9 -9 -9 -9 -9 -9 -9 -9 -9 -9 -9 -9 -9 -9 -9 -9 -9 -9 -9 -10 -10 -10 -10
-9 -9 -9 -9 -9 -9 -9 -9 -9 -9 -9 -9 -9 -9 -9 -10 -10 -10 -10 -10 -10 -9 -9 -10 -10 -10 -10 -10 -10 -10 -10 -10
-9 -9 -9 -9 -9 -9 -9 -9 -9 -9 -10 -10 -10 -10 -10 -10 -10 -10 -10 -10 -10 -10 -10 -10 -10 -10 -10 -10 -10 -10 -10 -10
-9 -9 -9 -9 -9 -9 -9 -9 -9 -9 -10 -10 -10 -10 -9 -9 -9 -10 -10 -10 -10 -9 -9 -9 -9 -9 -10 -10 -10 -10 -10 -10
-9 -9 -9 -9 -9 -9 -9 -9 -9 -10 -9 -9 -9 -9 -9 -9 -9 -9 -9 -10 -10 -10 -10 -10 -10 -10 -10 -10 -10 -10 -10 -10
-10 -10 -10 -10 -10 -10 -10 -10 -10 -10 -9 -9 -9 -9 -9 -9 -9 -9 -9 -10 -10 -10 -10 -10 -10 -10 -10 -10 -10 -10 -11 -11
-10 -10 -10 -10 -10 -10 -10 -10 -10 -10 -10 -10 -9 -10 -10 -10 -10 -10 -10 -10 -10 -10 -10 -10 -10 -10 -10 -10 -11 -11 -11 -12
-10 -11 -11 -10 -10 -10 -10 -10 -10 -10 -10 -10 -10 -10 -10 -10 -10 -11 -11 -11 -11 -11 -11 -11 -11 -11 -11 -11 -11 -12 -12 -13
-11 -11 -11 -11 -10 -11 -10 -10 -10 -10 -10 -11 -11 -11 -11 -11 -11 -11 -11 -11 -11 -11 -11 -11 -11 -11 -11 -11 -11 -11 -12 -13
-11 -11 -11 -11 -10 -11 -11 -11 -11 -11 -11 -11 -11 -11 -11 -11 -11 -11 -11 -11 -11 -11 -11 -11 -11 -12 -12 -12 -12 -13 -13 -13
-11 -11 -11 -11 -11 -11 -11 -11 -11 -11 -11 -11 -11 -11 -11 -11 -11 -11 -11 -11 -11 -12 -12 -12 -12 -12 -13 -13 -13 -13 -14 -14
-11 -11 -11 -11 -11 -11 -11 -11 -12 -12 -12 -11 -12 -12 -12 -11 -12 -12 -12 -12 -12 -12 -12 -13 -13 -13 -13 -13 -14 -14 -14 -14
-12 -11 -12 -12 -12 -12 -12 -12 -12 -12 -12 -12 -12 -12 -12 -12 -12 -12 -12 -12 -12 -13 -13 -13 -13 -14 -14 -14 -14 -14 -14 -15
Height
5882 5881 5880 5879 5879 5878 5877 5876 5876 5876 5876 5876 5876 5876 5875 5875 5875 5874 5873 5874 5874 5874 5875 5875 5875 5875 5876 5877 5877 5878 5878 5879
5883 5882 5881 5880 5880 5879 5879 5879 5879 5879 5878 5878 5878 5879 5879 5878 5878 5878 5878 5877 5877 5877 5877 5878 5877 5877 5877 5878 5878 5878 5878 5878
5883 5883 5882 5881 5881 5881 5881 5881 5881 5880 5880 5880 5879 5879 5879 5879 5879 5878 5878 5878 5879 5879 5879 5879 5879 5879 5878 5878 5878 5878 5878 5877
5883 5882 5882 5882 5882 5882 5882 5881 5881 5880 5880 5879 5879 5879 5879 5878 5878 5878 5878 5878 5878 5878 5879 5879 5879 5878 5878 5878 5877 5877 5876 5875
5881 5882 5881 5881 5881 5882 5881 5881 5880 5880 5879 5879 5879 5879 5879 5878 5878 5877 5877 5876 5876 5875 5875 5875 5875 5875 5874 5874 5873 5873 5872 5871
5880 5880 5880 5880 5880 5880 5880 5880 5879 5879 5879 5878 5878 5877 5877 5877 5876 5876 5876 5875 5875 5874 5873 5872 5871 5871 5870 5870 5869 5868 5867 5866
5877 5878 5878 5878 5878 5878 5878 5878 5877 5877 5876 5876 5876 5875 5875 5874 5874 5873 5873 5872 5872 5872 5871 5870 5869 5869 5867 5866 5865 5864 5862 5860
5874 5874 5874 5875 5875 5875 5875 5875 5875 5874 5874 5873 5873 5872 5871 5870 5869 5869 5868 5867 5866 5866 5866 5865 5864 5864 5863 5862 5861 5859 5858 5856
5870 5870 5871 5871 5871 5871 5871 5872 5872 5871 5870 5869 5869 5867 5866 5865 5864 5864 5863 5862 5861 5860 5859 5859 5858 5857 5857 5855 5854 5852 5850 5848
5865 5866 5867 5867 5866 5866 5867 5866 5866 5865 5865 5864 5863 5862 5860 5859 5859 5858 5857 5856 5855 5854 5853 5852 5852 5851 5849 5848 5847 5845 5842 5840
5860 5861 5862 5862 5861 5861 5862 5862 5861 5860 5859 5857 5857 5856 5855 5854 5854 5853 5852 5850 5849 5848 5846 5845 5844 5842 5841 5839 5838 5835 5833 5831
5854 5855 5855 5855 5855 5856 5855 5854 5853 5853 5852 5851 5850 5849 5848 5847 5847 5846 5845 5843 5842 5840 5839 5837 5836 5834 5832 5831 5828 5826 5823 5820
5848 5849 5849 5849 5849 5849 5848 5847 5846 5845 5845 5844 5844 5843 5842 5842 5841 5840 5839 5837 5834 5832 5831 5830 5829 5827 5826 5824 5821 5817 5815 5810
5841 5842 5843 5844 5843 5842 5841 5840 5840 5839 5839 5839 5838 5837 5837 5836 5835 5834 5832 5831 5828 5826 5824 5822 5820 5819 5816 5815 5813 5807 5806 5800
5834 5835 5836 5836 5836 5835 5834 5834 5833 5833 5833 5832 5832 5831 5830 5828 5827 5826 5824 5822 5821 5819 5816 5814 5812 5810 5807 5805 5802 5800 5795 5790
5826 5827 5828 5828 5828 5827 5827 5827 5827 5826 5826 5825 5825 5823 5822 5821 5820 5819 5817 5816 5814 5812 5810 5807 5804 5801 5799 5795 5792 5790 5788 5787
5817 5819 5820 5820 5820 5819 5819 5819 5819 5819 5819 5819 5817 5817 5816 5815 5814 5813 5811 5810 5808 5805 5803 5800 5797 5793 5789 5786 5782 5777 5774 5772
5809 5810 5811 5812 5812 5812 5812 5812 5812 5812 5811 5811 5811 5810 5810 5809 5808 5806 5805 5803 5800 5798 5795 5792 5789 5785 5781 5777 5772 5768 5763 5760
5800 5801 5802 5803 5803 5804 5805 5805 5805 5805 5805 5805 5805 5805 5803 5802 5801 5799 5798 5795 5793 5790 5787 5784 5780 5776 5772 5767 5762 5757 5752 5748
5791 5792 5793 5794 5796 5797 5798 5799 5799 5799 5799 5799 5798 5797 5796 5795 5793 5791 5789 5787 5784 5781 5778 5775 5771 5767 5762 5757 5751 5746 5740 5735
Wind_Speed
11 14 16 17 16 15 13 12 12 11 10 10 9 10 9 9 8 8 9 7 5 4 2 3 4 5 6 8 10 11 11 12
8 9 10 12 14 15 14 13 12 11 10 9 8 7 7 7 7 6 6 6 4 2 2 1 2 3 5 7 9 11 13 15
4 6 7 8 9 10 10 11 12 11 10 9 8 7 5 4 3 3 4 5 6 6 6 7 6 7 8 9 12 14 16 19
3 2 2 4 6 7 7 7 7 7 6 7 6 5 4 3 3 1 1 3 4 6 7 9 10 12 13 14 16 18 19 20
5 5 4 3 3 3 3 3 4 4 4 5 4 3 1 0 1 2 3 4 5 6 8 10 11 13 14 17 18 20 21 23
8 7 6 6 5 6 7 7 7 7 7 7 6 6 6 7 6 6 7 7 8 10 11 12 14 15 17 19 21 22 23 24
12 11 10 10 9 9 10 11 11 11 12 12 13 13 13 13 13 14 13 14 14 14 15 16 18 18 20 22 23 24 25 26
16 16 15 14 14 13 13 14 14 13 14 15 16 17 18 18 18 19 19 19 20 21 21 22 22 23 23 24 25 27 29 30
20 19 18 16 16 15 14 15 16 18 20 22 22 23 23 23 23 22 22 23 24 26 27 28 29 29 30 31 31 32 32 33
22 21 19 17 15 17 19 21 24 25 25 26 24 23 22 23 25 25 26 27 28 29 30 32 33 33 34 36 37 38 40 42
25 25 23 21 19 20 23 27 30 28 27 24 23 24 26 26 28 28 29 31 31 32 33 35 35 36 38 37 39 42 43 45
29 28 26 24 23 25 27 30 32 28 26 26 28 29 29 30 31 32 32 32 33 34 35 36 36 37 38 40 40 41 42 45
31 29 28 27 28 31 31 32 31 30 30 31 32 31 31 32 32 33 33 33 33 34 35 37 38 39 41 42 43 44 44 46
32 31 29 29 33 33 32 30 30 31 32 32 31 31 30 30 30 29 29 31 32 33 34 35 36 37 38 38 38 41 41 44
34 33 32 34 32 33 33 31 31 31 31 30 28 28 28 28 30 32 32 31 31 32 31 31 33 35 38 40 41 41 41 41
37 37 36 34 33 32 32 31 30 29 29 28 28 28 30 31 32 32 31 30 31 31 32 33 36 38 39 40 43 44 43 41
38 38 37 36 35 33 32 30 29 28 27 28 28 30 32 33 32 30 29 29 30 31 33 35 37 39 40 41 43 45 46 46
42 42 38 37 35 33 31 30 29 28 28 28 30 32 32 31 30 29 29 30 32 34 36 37 38 39 39 41 44 45 46 46
39 37 35 35 33 31 30 29 29 29 29 30 32 32 30 29 29 29 30 32 33 36 38 38 39 41 42 44 46 47 47 48
33 33 33 30 30 30 30 30 30 29 30 30 30 29 29 29 30 31 33 34 35 38 40 41 42 42 43 45 47 48 49 50
Wind_Direction
80 83 82 80 78 77 77 79 79 77 76 75 69 59 53 49 46 50 58 71 90 109 159 187 201 206 208 201 200 208 222 237
64 72 79 83 82 80 75 70 66 68 75 76 74 65 51 38 31 26 21 17 22 48 82 104 155 187 200 211 222 233 242 249
51 58 66 71 73 77 80 80 77 73 70 70 74 85 90 83 48 15 358 349 340 334 327 313 289 264 254 256 260 264 267 271
325 1 34 52 55 48 47 51 57 63 73 85 90 92 93 104 128 133 306 311 308 305 303 299 296 293 290 285 278 274 273 274
277 290 304 331 354 353 357 1 10 9 14 13 11 9 20 204 225 221 228 232 247 257 263 266 268 272 276 278 281 286 290 292
266 270 282 293 296 296 305 309 311 311 312 310 310 306 306 303 299 291 279 267 260 256 254 255 256 258 261 265 270 274 278 283
274 273 274 278 281 287 291 292 294 294 292 293 296 296 293 289 290 289 289 289 285 281 276 273 269 266 264 265 266 267 269 271
277 277 279 282 283 286 287 289 289 289 290 290 290 288 285 282 279 279 279 280 279 280 282 281 279 278 276 275 276 278 277 274
278 278 278 279 285 289 290 289 291 292 293 292 290 289 286 284 281 280 280 279 280 280 280 280 281 281 281 281 279 277 275 275
278 277 273 274 278 288 296 301 302 295 290 288 286 286 284 284 284 284 286 288 286 286 286 286 286 288 287 287 287 286 284 283
277 275 274 271 272 284 289 293 298 287 285 284 283 283 282 286 289 291 291 292 292 292 292 292 293 292 291 290 289 286 285 284
272 275 274 271 271 284 290 291 292 285 283 282 284 287 288 290 290 291 292 293 293 295 295 295 297 297 297 295 294 292 290 289
267 268 270 271 277 285 290 288 283 281 282 283 283 284 286 288 289 288 289 291 294 295 296 295 295 294 293 293 291 291 292 290
261 265 264 266 276 282 282 281 278 278 279 278 279 284 284 283 286 288 290 290 291 292 292 294 295 295 295 296 298 299 299 297
259 260 263 271 274 280 276 276 275 274 275 278 281 281 284 289 292 294 295 296 295 296 297 301 304 307 308 308 307 307 307 304
257 260 262 266 275 270 269 270 270 272 276 279 280 287 290 291 292 291 291 292 296 300 301 303 306 308 308 308 308 306 304 302
256 259 265 272 270 268 270 270 271 274 275 279 285 287 287 286 283 284 289 296 300 300 301 305 308 309 310 312 313 311 309 307
259 264 266 265 262 263 265 267 271 274 277 280 283 283 281 280 282 286 292 298 301 300 301 304 307 307 309 311 310 310 310 309
261 261 256 256 259 262 265 267 268 270 275 278 278 275 276 279 284 288 293 296 300 301 302 304 304 305 308 311 312 310 309 308
254 251 251 253 256 260 262 263 265 269 271 272 272 276 278 279 284 289 293 298 301 301 300 301 303 303 307 310 310 310 309 308